Tracking 30986 objects as of 9-Jul-2025
HD Live streaming from Space Station
objects crossing your sky now

CZ-6A DEB

Track CZ-6A DEB now!
10-day predictions


NORAD ID: 54452
Int'l Code: 2022-151GC
Perigee: 830.9 km
Apogee: 1,048.4 km
Inclination: 98.9 °
Period: 103.7 minutes
Semi major axis: 7310 km
RCS: Unknown
Launch date: November 11, 2022
Source: People's Republic of China (PRC)
Launch site: Taiyaun Space Center, China (TSC)

Note: This is SATELLITE DEBRIS
Your satellite tracking list
Your tracking list is empty




NASA's NSSDC Master Catalog

Two Line Element Set (TLE):
1 54452U 22151GC  25190.39589543  .00000022  00000-0  49467-4 0  9992
2 54452  98.9372 167.2917 0148794 296.3124  62.2816 13.88898912134463
Source of the keplerian elements: AFSPC